Weather in Hirske

Ukraine / Luhansk Region     48°44′28″N   38°29′41″E
temp.,
°C
wind,
m/s
gust,
m/s
humid.,
%
clouds,
%
prec.,
mm/h
press.,
hPa
HPBL,
m
25 january, mon
mon2523:000se61384100 0.0 1017373
02:000se5118495 0.0 1016334
05:00+1se5984100 0.1 1016311
08:00+1sse5118686 0.1 1015311
11:00+5sse5108149 0.0 1016313
14:00+4sse6108264 0.0 1014374
17:00+2se5118931 0.0 1015269
20:00+2se6138140 0.0 1014315
26 january, tue
tue2623:00+2se6157198 0.0 1013385
02:00+3se7176699 0.0 1011470
05:00+2sse81880100 0.5 1010460
08:00+3s6139387 0.9 1012421
11:00+5ssw6117691 0.0 1014655
14:00+4s498296 0.0 1013349
17:00+3sse61489100 0.0 1014313
20:00+5sse61690100 0.0 1013405
27 january, wed
wed2723:00+4sse71789100 0.0 1013483
02:00+4sse61576100 0.0 1012375
05:00+3sse41284100 0.0 1011320
08:00+4se61482100 0.0 1011382
11:00+6se71372100 0.0 1010422
14:00+6se61274100 0.0 1008414
17:00+4ese71378100 0.0 1007361
20:00+3se71681100 0.0 1008548
28 january, thu
thu2823:00+3se61386100 0.0 1007466
02:00+2se61189100 0.0 1006325
05:00+2ese5989100 0.0 1004281
08:00+3se61287100 0.1 1004413
11:00+6sse71580100 0.1 1004654
14:00+8s81475100 0.1 1002977
17:00+6s61390100 0.0 1003511
20:00+5s51092100 0.1 1004476
29 january, fri
fri2923:00+3ssw4888100 0.1 1005456
02:000sw4979100 0.1 1005448
05:00−1sw598099 0.0 1006568
08:000wsw6875100 0.0 1007798
11:00+1wsw6865100 0.0 10071014
14:00+2sw575868 0.0 10071121
17:00−1s33690 0.0 100659
20:00−1sse377921 0.0 1005302